This is the latest recevied weather packets stored in our database for station/object N5JXS. If no packets are shown the sender has not sent any weather packets the latest 10 day(s).
| Time | Temp. | Humidity | Pressure | Rain* | Wind** | Luminosity | Snow |
|---|---|---|---|---|---|---|---|
| 1788106867 | 18.33° C | 61% | 1026.5 hPa | 0 mm | - | 160 W/m² | - |
| 1788106567 | 18.33° C | 63% | 1026.6 hPa | 0 mm | - | 125 W/m² | - |
| 1788106262 | 18.33° C | 64% | 1026.6 hPa | 0 mm | - | 111 W/m² | - |
| 1788105957 | 18.33° C | 61% | 1026.6 hPa | 0 mm | - | 121 W/m² | - |
| 1788105652 | 18.33° C | 62% | 1026.7 hPa | 0 mm | - | 110 W/m² | - |
| 1788105349 | 18.33° C | 61% | 1026.6 hPa | 0 mm | - | 98 W/m² | - |
| 1788105044 | 18.33° C | 57% | 1026.2 hPa | 0 mm | - | 91 W/m² | - |
| 1788104739 | 17.78° C | 56% | 1026.8 hPa | 0 mm | - | 84 W/m² | - |
| 1788104436 | 17.78° C | 61% | 1026.1 hPa | 0 mm | - | 80 W/m² | - |
| 1788104132 | 17.78° C | 62% | 1026.1 hPa | 0 mm | - | 71 W/m² | - |
| 1788103832 | 17.22° C | 61% | 1026.1 hPa | 0 mm | - | 69 W/m² | - |
| 1788103526 | 17.22° C | 63% | 1026.5 hPa | 0 mm | - | 65 W/m² | - |
| 1788103225 | 17.22° C | 62% | 1026.3 hPa | 0 mm | - | 54 W/m² | - |
| 1788102925 | 17.22° C | 65% | 1026.2 hPa | 0 mm | - | 47 W/m² | - |
| 1788102620 | 17.22° C | 63% | 1026.3 hPa | 0 mm | - | 49 W/m² | - |
| 1788102319 | 17.22° C | 63% | 1026.2 hPa | 0 mm | - | 49 W/m² | - |
| 1788102015 | 17.22° C | 64% | 1026.5 hPa | 0 mm | - | 55 W/m² | - |
| 1788101714 | 17.22° C | 64% | 1026.3 hPa | 0 mm | - | 54 W/m² | - |
| 1788101409 | 16.67° C | 62% | 1026.2 hPa | 0 mm | - | 53 W/m² | - |
| 1788101105 | 16.67° C | 64% | 1026.3 hPa | 0 mm | - | 55 W/m² | - |
| 1788100801 | 16.67° C | 64% | 1026.3 hPa | 0 mm | - | 54 W/m² | - |
| 1788100496 | 16.67° C | 64% | 1026.2 hPa | 0 mm | - | 50 W/m² | - |
| 1788100198 | 16.67° C | 64% | 1026.3 hPa | 0 mm | - | 57 W/m² | - |
| 1788099890 | 16.67° C | 64% | 1026.5 hPa | 0 mm | - | 60 W/m² | - |
| 1788099584 | 16.67° C | 64% | 1026.1 hPa | 0 mm | - | 56 W/m² | - |
* Rain latest hour (hover to see other rain measurements)
** Current wind speed in m/s (hover to see current wind gust speed)